CAPE
712 1019 938 1005 1158 1343 1360 1403 1505 1650 1771 1824 1805 1806 1782 1680 1604 1476 1293 1153 1078 919 775 658 591 541 426 330 238 198 210 298 501 296 170 87 17 9 18 8 241 119 439
700 959 798 953 1142 1216 1323 1380 1496 1622 1738 1704 1716 1623 1649 1585 1552 1436 1252 1155 1127 786 855 711 570 466 350 234 164 133 109 130 165 148 125 153 54 2 1 6 43 57 272
871 949 314 901 1029 1117 1299 1406 1529 1697 1724 1445 1364 1474 1532 1444 1467 1418 1273 1173 1149 722 535 371 266 185 140 176 159 109 83 55 45 3 8 14 0 48 18 7 0 0 0
1046 988 109 756 919 1075 1131 1327 1519 1696 1633 1488 1395 1402 1511 1390 1433 1335 1317 1145 1049 477 253 162 111 128 160 136 65 57 5 0 0 95 46 71 8 24 30 0 0 0 0
1145 901 396 610 785 1013 1147 1363 1488 1570 1510 1450 1375 1411 1342 1299 1336 1157 1357 1216 1132 543 219 114 109 92 56 27 12 22 2 0 0 44 81 222 214 44 3 0 0 0 0
1178 1002 362 424 672 955 1172 1334 1446 1424 1349 1323 1316 1378 1322 1139 1092 1219 1314 1338 1234 707 235 114 82 41 15 0 0 5 2 0 55 266 247 4 365 153 99 45 23 0 0
1120 1170 880 332 569 927 1199 1340 1289 1198 1117 1102 1208 1267 1274 1252 1197 1157 1171 1230 1143 856 235 109 66 25 19 11 5 3 14 22 586 303 381 254 336 141 85 9 0 0 0
1127 1323 929 396 502 752 1028 1102 938 894 847 843 1015 1135 1181 1123 1066 1014 995 954 873 622 402 223 118 64 59 50 32 4 68 142 397 474 422 325 151 254 111 17 0 0 0
1230 1383 1210 587 512 482 734 741 624 598 575 607 724 849 980 823 726 804 794 764 697 503 343 141 114 82 71 58 28 73 188 304 849 465 379 454 169 513 324 146 27 0 0
1422 1148 1421 952 537 464 524 382 343 354 351 402 479 535 566 495 528 646 650 644 571 387 248 173 71 32 32 4 7 131 179 299 977 692 576 588 266 404 762 602 396 266 162
1001 956 1556 1270 1010 759 621 395 126 168 209 244 332 346 310 34 213 471 180 481 586 353 223 166 81 10 0 5 134 183 230 903 941 824 698 156 176 509 821 656 396 270 211
1095 1142 1378 1490 1382 1212 794 702 289 49 116 156 74 199 102 13 49 0 66 273 427 317 223 145 76 2 4 477 464 239 912 1026 1095 847 748 62 280 554 761 921 747 500 282
1041 1031 1131 1452 1529 1493 1107 859 492 105 17 70 114 159 79 52 99 48 61 37 91 91 18 2 0 0 239 800 914 1073 1093 1244 1054 670 194 0 201 452 563 759 937 926 550
1034 964 1004 1210 1556 1524 1143 801 565 242 72 138 187 364 232 237 96 11 0 0 52 85 109 28 6 32 721 928 1082 1232 1246 983 750 247 28 0 34 273 770 519 349 138 9
1044 982 988 1123 1378 1461 1403 872 671 369 75 138 190 353 233 196 130 80 56 24 52 287 544 369 198 353 752 848 1177 1294 1193 659 143 0 0 0 41 809 460 68 1 0 0
937 1071 1020 1086 1252 1326 1371 1200 770 513 123 131 138 234 437 290 256 116 132 205 260 468 619 571 493 562 636 902 1292 1139 812 206 9 0 0 0 85 145 24 0 0 0 0
824 807 1080 1179 1117 1307 1286 1288 1001 560 313 113 115 286 457 503 427 374 190 313 330 560 869 943 781 710 810 1137 1243 908 222 53 0 0 0 0 0 0 0 0 0 0 0
1106 944 802 919 1058 1212 1175 1213 988 671 448 254 132 149 451 623 531 606 328 283 486 814 1098 1166 1076 839 1201 1126 755 230 193 157 0 0 0 0 0 0 0 0 0 0 0
1144 1384 1249 1004 1128 1255 1204 1215 1178 991 705 462 289 193 244 545 626 626 478 429 433 857 1232 1225 1096 1154 1113 791 301 124 246 137 3 0 0 0 0 0 0 0 0 0 0
584 1365 1704 1653 1288 1170 1377 1339 1130 1014 913 727 514 372 378 395 560 677 495 575 654 723 1141 1398 1255 1137 1135 591 4 80 178 134 51 0 0 0 0 0 0 0 0 0 0
0 624 1281 1792 1880 1461 1264 1305 1269 1115 949 871 704 662 514 467 484 648 539 555 822 830 814 1663 1732 1449 418 156 120 160 426 431 126 0 0 0 0 0 0 0 0 0 0
0 0 251 1217 1567 1849 1528 1410 1423 1302 1131 1040 925 1108 962 713 964 775 864 662 752 856 1014 1671 1897 1326 548 266 203 130 179 95 240 36 0 0 0 0 0 0 0 0 0
0 0 0 99 960 1553 1812 1587 1468 1307 1427 1272 1307 1308 1257 839 1187 1267 1186 1128 1437 1490 1404 1994 1983 1159 599 200 247 140 162 129 52 0 0 0 0 0 0 0 0 0 0
0 0 0 0 118 1005 1753 1897 1719 1599 1457 1996 1789 1528 1460 1377 1237 1332 1443 1463 1629 1604 1788 1978 2012 1262 680 215 170 211 228 90 24 0 0 0 0 0 0 0 0 0 0
0 0 0 0 0 54 1263 1917 1862 1872 1926 1964 1903 2157 2506 1883 1529 1086 1584 1665 1641 1762 1908 2185 1356 1499 866 240 293 141 171 205 90 30 5 0 0 0 0 0 0 0 0
0 0 0 0 0 0 25 895 1791 1806 1941 1999 2170 2319 2454 2444 2271 1973 1597 1775 1705 1673 1895 2046 2181 623 182 339 370 110 144 75 18 32 42 26 0 0 0 0 0 0 0
CIN
-153 -168 -235 -164 -100 -69 -50 -69 -52 -45 -20 -12 -13 -19 -19 -17 -13 -16 -25 -36 -45 -62 -85 -110 -122 -124 -148 -185 -236 -266 -263 -215 -125 -218 -287 -359 -463 -474 -461 -483 -246 -305 -152
-161 -201 -295 -197 -125 -112 -72 -72 -59 -47 -20 -24 -25 -28 -22 -17 -16 -28 -49 -51 -46 -104 -89 -114 -141 -162 -201 -258 -295 -319 -352 -342 -313 -321 -327 -309 -409 -304 -287 -521 -468 -436 -240
-154 -207 -391 -229 -168 -133 -88 -73 -55 -38 -25 -51 -62 -48 -43 -50 -53 -39 -49 -58 -53 -132 -173 -211 -245 -281 -307 -295 -307 -349 -383 -408 -414 -56 -249 -358 -0 -428 -506 -566 -0 -0 -0
-178 -196 -376 -270 -214 -155 -122 -94 -58 -38 -37 -54 -56 -59 -50 -66 -64 -63 -55 -69 -81 -181 -249 -291 -320 -329 -324 -343 -412 -428 -406 -0 -0 -385 -302 -248 -148 -493 -482 -36 -0 -0 -0
-181 -200 -289 -316 -256 -178 -122 -82 -61 -52 -59 -64 -61 -59 -68 -85 -79 -95 -51 -56 -68 -175 -271 -338 -364 -380 -434 -510 -561 -533 -325 -0 -0 -385 -254 -172 -182 -393 -314 -0 -0 -0 -0
-168 -172 -425 -379 -283 -188 -125 -94 -72 -72 -88 -67 -63 -60 -64 -92 -104 -82 -63 -56 -60 -142 -288 -357 -417 -501 -563 -0 -0 -590 -325 -0 -348 -127 -169 -80 -122 -287 -342 -427 -470 -0 -0
-165 -163 -263 -394 -314 -195 -122 -110 -116 -120 -131 -119 -80 -72 -65 -66 -83 -78 -78 -71 -75 -111 -301 -391 -474 -557 -589 -618 -638 -648 -598 -331 -53 -111 -87 -163 -152 -302 -373 -475 -0 -0 -0
-148 -140 -232 -362 -303 -222 -163 -158 -189 -199 -195 -170 -117 -85 -65 -66 -89 -92 -94 -104 -121 -174 -234 -326 -423 -517 -537 -555 -590 -663 -408 -297 -121 -58 -59 -104 -316 -240 -348 -475 -0 -0 -0
-167 -143 -156 -288 -303 -294 -213 -239 -271 -270 -264 -229 -178 -134 -102 -115 -144 -124 -117 -115 -140 -185 -251 -392 -417 -459 -494 -523 -582 -421 -277 -187 -15 -52 -75 -58 -241 -107 -164 -268 -396 -0 -0
-179 -209 -110 -173 -265 -271 -227 -292 -314 -320 -314 -296 -252 -212 -193 -188 -171 -150 -144 -140 -153 -204 -273 -339 -453 -526 -536 -588 -480 -329 -283 -190 -3 -13 -24 -37 -223 -133 -43 -64 -109 -156 -209
-290 -276 -121 -121 -139 -164 -173 -225 -340 -322 -315 -305 -274 -268 -260 -255 -235 -169 -234 -183 -140 -204 -248 -296 -415 -557 -0 -137 -301 -253 -209 -5 -2 -2 -4 -208 -252 -91 -27 -42 -93 -125 -151
-306 -269 -175 -131 -116 -115 -137 -140 -225 -277 -264 -252 -275 -242 -257 -292 -267 -0 -278 -238 -169 -191 -220 -260 -351 -476 -300 -88 -120 -174 -11 -0 -0 -0 -3 -355 -191 -69 -34 -24 -35 -58 -108
-249 -282 -240 -149 -119 -109 -127 -144 -176 -239 -281 -246 -236 -225 -250 -247 -223 -274 -247 -311 -241 -275 -316 -58 -0 -37 -125 -12 -3 -0 -0 -0 -0 -2 -127 -47 -201 -70 -52 -30 -15 -8 -41
-225 -275 -252 -206 -133 -117 -129 -174 -174 -217 -260 -226 -208 -182 -196 -191 -221 -243 -0 -0 -219 -184 -170 -229 -240 -205 -30 -3 -0 -0 -0 -0 -0 -60 -71 -0 -342 -109 -12 -42 -70 -145 -276
-205 -253 -277 -233 -183 -142 -116 -164 -183 -210 -268 -241 -218 -192 -194 -195 -208 -211 -195 -185 -167 -94 -59 -92 -104 -72 -15 -2 -0 -0 -0 -1 -89 -0 -0 -0 -302 -9 -27 -187 -196 -0 -0
-176 -222 -273 -280 -229 -187 -148 -148 -193 -199 -224 -249 -225 -210 -194 -188 -191 -203 -182 -152 -126 -71 -38 -39 -43 -28 -16 -0 -0 -0 -0 -44 -47 -0 -0 -0 -106 -68 -35 -0 -0 -0 -0
-148 -209 -252 -282 -279 -229 -190 -152 -161 -193 -222 -255 -265 -229 -192 -183 -171 -175 -187 -138 -114 -63 -18 -3 -12 -8 -3 -0 -0 -0 -28 -79 -0 -0 -0 -0 -0 -0 -0 -0 -0 -0 -0
-91 -157 -222 -270 -307 -287 -254 -180 -178 -184 -219 -241 -265 -285 -223 -177 -179 -149 -172 -162 -79 -23 -0 -0 -0 -0 -0 -0 -0 -19 -19 -24 -0 -0 -0 -0 -0 -0 -0 -0 -0 -0 -0
-92 -107 -163 -248 -279 -289 -277 -235 -208 -202 -224 -235 -263 -290 -307 -232 -192 -155 -151 -141 -116 -26 -2 -0 -0 -0 -0 -0 -11 -38 -8 -16 -34 -0 -0 -0 -0 -0 -0 -0 -0 -0 -0
-133 -127 -142 -161 -252 -248 -205 -207 -223 -230 -239 -242 -260 -278 -288 -286 -235 -194 -168 -127 -102 -57 -12 -4 -0 -0 -0 -0 -5 -54 -19 -13 -26 -0 -0 -0 -0 -0 -0 -0 -0 -0 -0
-1 -191 -165 -154 -160 -192 -221 -216 -214 -237 -254 -274 -305 -298 -304 -290 -253 -202 -196 -153 -89 -68 -58 -0 -0 -0 -28 -57 -42 -34 -0 -0 -13 -0 -0 -0 -0 -0 -0 -0 -0 -0 -0
-0 -0 -283 -228 -184 -145 -176 -198 -173 -163 -198 -219 -257 -248 -271 -292 -243 -245 -188 -167 -121 -70 -45 -1 -0 -6 -30 -70 -23 -31 -10 -24 -4 -44 -0 -0 -0 -0 -0 -0 -0 -0 -0
-0 -0 -0 -198 -250 -165 -143 -147 -167 -185 -161 -197 -226 -243 -251 -297 -239 -242 -209 -167 -72 -53 -27 -0 -0 -9 -33 -103 -38 -22 -8 -19 -34 -0 -0 -0 -0 -0 -0 -0 -0 -0 -0
-0 -0 -0 -0 -393 -205 -105 -96 -122 -140 -182 -173 -181 -192 -200 -227 -256 -221 -213 -179 -124 -80 -43 -8 -0 -14 -13 -85 -34 -52 -21 -33 -45 -0 -0 -0 -0 -0 -0 -0 -0 -0 -0
-0 -0 -0 -0 -0 -391 -136 -53 -54 -78 -105 -131 -117 -117 -92 -159 -215 -262 -195 -165 -142 -93 -57 -11 -43 -26 -16 -22 -11 -63 -11 -2 -41 -11 -0 -0 -0 -0 -0 -0 -0 -0 -0
-0 -0 -0 -0 -0 -0 -301 -155 -47 -44 -48 -56 -57 -62 -78 -89 -114 -178 -219 -174 -152 -117 -80 -30 -4 -141 -122 -13 -18 -16 -27 -8 -49 -32 -2 -0 -0 -0 -0 -0 -0 -0 -0
Wind_Speed
31 34 30 28 23 19 19 16 13 12 9 9 8 9 11 13 14 12 8 7 7 8 9 9 9 8 6 4 2 1 3 4 5 3 2 nan nan nan nan nan 13 2 1
33 33 29 28 25 20 20 19 15 13 12 11 9 9 9 12 12 10 8 7 7 7 6 6 6 6 6 6 5 3 3 3 0 3 4 7 nan nan nan nan nan nan 2
32 31 30 26 26 24 20 21 19 16 15 14 13 13 13 12 12 11 10 8 6 6 5 4 4 4 4 5 3 2 nan nan nan nan nan nan nan nan nan nan nan nan nan
29 28 28 24 26 26 23 19 19 17 16 14 12 14 13 12 12 11 8 7 6 5 4 4 3 3 3 5 nan nan nan nan nan nan nan nan nan nan nan nan nan nan nan
29 30 27 24 25 26 26 22 19 17 13 12 11 10 11 12 12 10 7 6 7 6 6 5 2 nan nan nan nan nan nan nan nan nan nan 6 8 nan nan nan nan nan nan
27 29 30 24 24 26 25 24 19 16 14 10 8 9 10 11 12 9 6 5 6 7 7 7 nan nan nan nan nan nan nan nan nan 10 10 nan 10 13 nan nan nan nan nan
25 25 27 24 24 25 25 23 22 17 14 11 8 7 7 8 9 7 6 5 6 5 7 7 nan nan nan nan nan nan nan nan 8 10 13 15 18 17 nan nan nan nan nan
23 22 23 22 21 22 24 22 20 19 15 11 9 7 7 7 6 4 4 5 6 6 6 6 7 nan nan nan nan nan nan 6 10 11 14 16 23 20 21 nan nan nan nan
20 19 21 23 24 19 19 20 21 20 18 15 12 10 9 9 8 7 6 6 8 8 8 7 8 nan nan nan nan nan 9 6 6 16 16 22 26 21 20 20 nan nan nan
19 19 21 22 21 22 22 18 19 19 20 19 16 13 11 11 10 11 10 9 10 11 11 10 nan nan nan nan nan 10 11 9 12 19 18 27 30 21 18 19 19 21 21
18 21 22 22 22 20 19 21 17 17 17 17 17 15 14 nan 13 17 12 21 14 15 15 15 nan nan nan nan 15 16 14 18 21 22 20 30 26 22 18 19 19 21 23
27 24 22 25 23 20 17 19 20 nan 17 17 nan 20 14 nan nan nan nan 18 16 17 18 19 nan nan nan 23 25 21 18 23 20 19 22 nan 21 19 20 20 20 24 27
22 22 24 22 22 23 18 16 14 16 nan nan 17 18 nan nan nan nan nan nan nan nan nan nan nan nan 21 21 23 23 24 21 20 20 28 nan 21 20 21 24 28 33 36
20 21 22 23 22 21 18 17 15 15 nan 17 17 18 17 16 nan nan nan nan nan nan 19 nan nan nan 21 19 18 20 19 19 21 21 nan nan nan 27 31 34 38 40 nan
19 20 22 21 20 21 20 18 15 15 nan 17 19 19 17 18 19 nan nan nan nan 18 19 21 19 21 21 20 19 18 21 20 22 nan nan nan nan 33 37 nan nan nan nan
18 22 24 23 20 19 18 20 18 15 15 16 16 19 20 19 21 21 20 19 20 20 19 21 22 21 21 21 20 17 21 22 nan nan nan nan nan 38 nan nan nan nan nan
17 19 23 26 25 21 17 18 17 17 16 15 15 18 21 21 23 24 24 23 23 23 22 23 25 21 22 23 22 23 22 nan nan nan nan nan nan nan nan nan nan nan nan
16 20 20 23 25 26 22 16 17 17 18 15 13 14 18 19 19 22 23 24 23 24 24 25 27 26 24 25 26 25 25 25 nan nan nan nan nan nan nan nan nan nan nan
19 19 18 19 21 23 25 23 20 20 20 17 15 12 17 19 18 17 20 22 23 22 26 26 27 26 26 26 27 29 29 28 nan nan nan nan nan nan nan nan nan nan nan
26 23 21 21 19 23 21 25 24 21 24 22 17 15 18 21 24 23 22 23 25 23 24 26 26 29 27 28 nan nan 33 31 nan nan nan nan nan nan nan nan nan nan nan
nan 29 25 24 23 27 30 24 26 26 27 27 22 20 21 22 24 24 24 26 25 24 26 28 27 28 30 35 38 36 33 33 32 nan nan nan nan nan nan nan nan nan nan
nan nan 34 31 26 29 31 31 30 30 31 27 26 24 25 26 28 29 27 29 31 26 24 27 30 32 32 38 38 42 38 nan 34 nan nan nan nan nan nan nan nan nan nan
nan nan nan nan 37 31 33 36 36 35 34 34 29 29 28 28 29 33 32 31 32 33 30 30 35 37 37 39 39 41 43 39 nan nan nan nan nan nan nan nan nan nan nan
nan nan nan nan 49 43 37 38 35 37 36 34 32 34 31 31 32 33 34 37 36 36 36 36 36 36 40 43 46 37 37 nan nan nan nan nan nan nan nan nan nan nan nan
nan nan nan nan nan nan 46 43 43 39 38 36 39 35 29 30 31 33 35 38 41 40 41 43 44 43 43 50 44 56 38 44 nan nan nan nan nan nan nan nan nan nan nan
nan nan nan nan nan nan nan 43 41 38 41 41 39 38 35 31 28 31 30 37 40 45 45 47 50 49 51 42 50 48 45 nan nan nan nan nan nan nan nan nan nan nan nan
Wind_Direction
0 347 356 358 3 2 357 342 344 337 334 342 349 357 346 339 332 322 316 313 311 302 301 299 301 303 309 311 307 190 154 146 148 166 186 nan nan nan nan nan 85 283 187
354 348 352 356 1 1 357 350 344 343 340 345 343 349 348 341 342 348 350 350 340 322 318 326 329 334 335 331 348 27 75 90 113 99 34 311 nan nan nan nan nan nan 267
350 349 355 354 358 3 2 351 349 346 345 340 349 349 342 348 355 4 6 9 14 357 4 6 2 3 14 27 24 27 nan nan nan nan nan nan nan nan nan nan nan nan nan
346 347 355 355 357 1 3 353 356 352 349 339 344 340 339 349 357 8 13 24 28 5 8 24 24 28 69 85 nan nan nan nan nan nan nan nan nan nan nan nan nan nan nan
347 349 347 353 357 2 1 357 355 357 0 354 347 349 347 349 357 0 11 25 20 9 9 15 26 nan nan nan nan nan nan nan nan nan nan 326 298 nan nan nan nan nan nan
349 350 333 350 355 359 359 357 352 356 1 12 6 353 347 348 348 352 354 355 356 355 359 355 nan nan nan nan nan nan nan nan nan 337 326 nan 288 300 nan nan nan nan nan
349 346 341 348 349 355 354 355 357 351 355 360 1 355 346 347 343 345 335 324 323 335 342 344 nan nan nan nan nan nan nan nan 60 332 324 322 297 310 nan nan nan nan nan
339 341 339 343 346 352 351 349 353 356 348 350 347 335 332 341 334 327 301 286 291 301 312 324 332 nan nan nan nan nan nan 22 357 315 318 305 296 311 311 nan nan nan nan
343 342 341 345 346 346 345 345 347 349 350 349 338 337 318 313 314 311 302 284 277 276 281 294 304 nan nan nan nan nan 323 348 348 302 309 299 308 314 314 314 nan nan nan
356 355 349 346 345 345 344 339 342 343 343 344 347 335 325 315 306 307 300 299 291 285 280 277 nan nan nan nan nan 302 307 333 320 305 310 285 297 302 304 307 311 308 306
4 5 356 353 347 341 341 335 333 333 336 334 337 341 332 nan 323 313 310 293 291 286 284 282 nan nan nan nan 292 293 306 298 299 297 293 285 293 299 294 292 304 304 306
5 4 4 357 355 349 338 331 338 nan 338 340 nan 335 343 nan nan nan nan 300 295 290 288 288 nan nan nan 296 293 294 298 287 299 292 280 nan 302 301 289 280 285 297 297
3 359 2 0 356 357 350 331 319 315 nan nan 335 334 nan nan nan nan nan nan nan nan nan nan nan nan 304 289 292 294 291 295 286 284 274 nan 302 298 285 279 281 286 289
344 352 358 356 357 3 351 342 334 319 nan 309 319 327 319 315 nan nan nan nan nan nan 303 nan nan nan 300 304 299 302 302 292 286 281 nan nan nan 287 286 283 286 289 nan
332 334 337 345 348 351 357 343 345 338 nan 314 309 315 311 310 309 nan nan nan nan 302 304 303 302 302 303 304 306 307 303 295 286 nan nan nan nan 288 288 nan nan nan nan
327 332 331 333 335 339 347 348 338 341 341 327 314 308 319 305 303 305 305 309 309 306 302 296 297 298 297 299 302 302 299 296 nan nan nan nan nan 279 nan nan nan nan nan
310 321 324 321 326 326 337 336 331 328 335 334 330 328 324 319 311 308 307 307 307 306 307 300 297 295 295 296 296 292 292 nan nan nan nan nan nan nan nan nan nan nan nan
298 307 311 310 318 321 318 318 315 317 319 328 328 330 345 340 335 320 311 309 305 299 298 298 298 298 294 292 294 293 291 288 nan nan nan nan nan nan nan nan nan nan nan
279 289 299 308 316 318 314 303 308 315 310 310 315 316 337 340 342 338 329 321 320 311 304 298 297 297 295 291 289 288 287 289 nan nan nan nan nan nan nan nan nan nan nan
270 277 287 290 302 300 296 290 287 295 297 299 304 312 322 321 333 331 332 331 323 318 315 309 303 299 294 291 nan nan 285 283 nan nan nan nan nan nan nan nan nan nan nan
nan 274 281 289 296 292 294 290 286 285 282 291 298 316 313 311 316 322 320 327 327 325 321 321 312 301 294 289 283 274 273 279 283 nan nan nan nan nan nan nan nan nan nan
nan nan 268 280 280 290 289 288 284 279 278 274 283 296 303 312 312 311 315 318 323 321 326 322 315 310 307 300 289 280 277 nan 281 nan nan nan nan nan nan nan nan nan nan
nan nan nan nan 276 278 286 281 284 284 279 280 282 281 287 299 305 309 309 310 312 314 314 323 319 321 310 304 307 290 285 281 nan nan nan nan nan nan nan nan nan nan nan
nan nan nan nan 257 269 272 278 283 284 285 279 269 274 282 298 299 307 309 308 310 308 315 314 315 317 312 308 293 284 287 nan nan nan nan nan nan nan nan nan nan nan nan
nan nan nan nan nan nan 265 271 272 278 276 272 274 273 274 276 299 309 313 306 306 307 313 313 312 318 313 294 297 294 298 300 nan nan nan nan nan nan nan nan nan nan nan
nan nan nan nan nan nan nan 257 266 265 267 265 265 265 273 268 276 296 309 300 301 300 305 308 311 317 302 295 307 309 316 nan nan nan nan nan nan nan nan nan nan nan nan